Wetterdaten: Freitag, 18.12.2015
Datum Zeit Temp. A. Feuchte A. Luftdruck Regen Wind Richtung Richtung Sonnenschein ET UV Solar Taupunkt Windchill Windben Empfang
18.12.2015 00:00 6,3 C 99 % 1026,1 hPa 0,0 l/m 6,0 km/h (2 Bft) S-SO 150 0 min 0,000 mm 0,0 UV-I 0 W/m 6,2 C 6,3 C 12,9 km/h (3 Bft) 96,52 %
18.12.2015 00:05 6,5 C 99 % 1026,1 hPa 0,0 l/m 6,2 km/h (2 Bft) N 355 0 min 0,000 mm 0,0 UV-I 0 W/m 6,4 C 6,5 C 11,3 km/h (2 Bft) 98,28 %
18.12.2015 00:10 6,3 C 99 % 1026,2 hPa 0,0 l/m 3,0 km/h (1 Bft) W-NW 298 0 min 0,000 mm 0,0 UV-I 0 W/m 6,2 C 6,3 C 11,3 km/h (2 Bft) 97,39 %
18.12.2015 00:15 6,3 C 99 % 1026,0 hPa 0,0 l/m 2,7 km/h (1 Bft) NO 37 0 min 0,000 mm 0,0 UV-I 0 W/m 6,2 C 6,3 C 6,4 km/h (2 Bft) 99,06 %
18.12.2015 00:20 6,4 C 99 % 1025,9 hPa 0,0 l/m 1,6 km/h (1 Bft) S-SO 157 0 min 0,000 mm 0,0 UV-I 0 W/m 6,3 C 6,4 C 4,8 km/h (1 Bft) 99,21 %
18.12.2015 00:25 6,4 C 99 % 1025,9 hPa 0,0 l/m 1,1 km/h (1 Bft) S 185 0 min 0,000 mm 0,0 UV-I 0 W/m 6,3 C 6,4 C 3,2 km/h (1 Bft) 99,17 %
18.12.2015 00:30 6,4 C 99 % 1025,8 hPa 0,0 l/m 0,6 km/h (0 Bft) S 185 0 min 0,000 mm 0,0 UV-I 0 W/m 6,3 C 6,4 C 3,2 km/h (1 Bft) 97,22 %
18.12.2015 00:35 6,3 C 99 % 1025,8 hPa 0,0 l/m 1,7 km/h (1 Bft) NW 321 0 min 0,000 mm 0,0 UV-I 0 W/m 6,2 C 6,3 C 6,4 km/h (2 Bft) 100,00 %
18.12.2015 00:40 6,2 C 98 % 1025,8 hPa 0,0 l/m 2,0 km/h (1 Bft) N 355 0 min 0,000 mm 0,0 UV-I 0 W/m 5,9 C 6,2 C 4,8 km/h (1 Bft) 99,11 %
18.12.2015 00:45 5,9 C 99 % 1025,8 hPa 0,0 l/m 1,4 km/h (1 Bft) N 5 0 min 0,000 mm 0,0 UV-I 0 W/m 5,8 C 5,9 C 3,2 km/h (1 Bft) 99,21 %
18.12.2015 00:50 5,8 C 98 % 1025,8 hPa 0,0 l/m 2,0 km/h (1 Bft) N 5 0 min 0,000 mm 0,0 UV-I 0 W/m 5,5 C 5,8 C 6,4 km/h (2 Bft) 99,13 %
18.12.2015 00:55 5,8 C 98 % 1025,8 hPa 0,0 l/m 1,2 km/h (1 Bft) N-NW 327 0 min 0,000 mm 0,0 UV-I 0 W/m 5,5 C 5,8 C 3,2 km/h (1 Bft) 99,12 %
18.12.2015 01:00 5,7 C 98 % 1025,8 hPa 0,0 l/m 0,1 km/h (0 Bft) N-NW 327 0 min 0,000 mm 0,0 UV-I 0 W/m 5,4 C 5,7 C 1,6 km/h (1 Bft) 98,31 %
18.12.2015 01:05 5,6 C 98 % 1025,8 hPa 0,0 l/m 0,0 km/h (0 Bft) N-NW 327 0 min 0,000 mm 0,0 UV-I 0 W/m 5,3 C 5,6 C 0,0 km/h (0 Bft) 99,17 %
18.12.2015 01:10 5,5 C 99 % 1025,7 hPa 0,0 l/m 0,4 km/h (0 Bft) N-NW 327 0 min 0,000 mm 0,0 UV-I 0 W/m 5,4 C 5,5 C 3,2 km/h (1 Bft) 99,10 %
18.12.2015 01:15 5,3 C 98 % 1025,6 hPa 0,0 l/m 0,2 km/h (0 Bft) N-NW 327 0 min 0,000 mm 0,0 UV-I 0 W/m 5,0 C 5,3 C 1,6 km/h (1 Bft) 98,35 %
18.12.2015 01:20 5,3 C 98 % 1025,5 hPa 0,0 l/m 0,4 km/h (0 Bft) N-NW 327 0 min 0,000 mm 0,0 UV-I 0 W/m 5,0 C 5,3 C 1,6 km/h (1 Bft) 98,21 %
18.12.2015 01:25 5,3 C 99 % 1025,5 hPa 0,0 l/m 1,7 km/h (1 Bft) SO 144 0 min 0,000 mm 0,0 UV-I 0 W/m 5,2 C 5,3 C 4,8 km/h (1 Bft) 99,17 %
18.12.2015 01:30 5,3 C 99 % 1025,5 hPa 0,0 l/m 2,4 km/h (1 Bft) SO 144 0 min 0,000 mm 0,0 UV-I 0 W/m 5,2 C 5,3 C 4,8 km/h (1 Bft) 98,26 %
18.12.2015 01:35 5,3 C 99 % 1025,5 hPa 0,0 l/m 1,1 km/h (1 Bft) W-NW 291 0 min 0,000 mm 0,0 UV-I 0 W/m 5,2 C 5,3 C 3,2 km/h (1 Bft) 95,83 %
18.12.2015 01:40 5,3 C 99 % 1025,5 hPa 0,0 l/m 0,8 km/h (0 Bft) W-NW 291 0 min 0,000 mm 0,0 UV-I 0 W/m 5,2 C 5,3 C 3,2 km/h (1 Bft) 94,92 %
18.12.2015 01:45 5,3 C 99 % 1025,6 hPa 0,0 l/m 0,0 km/h (0 Bft) W-NW 291 0 min 0,000 mm 0,0 UV-I 0 W/m 5,2 C 5,3 C 0,0 km/h (0 Bft) 97,46 %
18.12.2015 01:50 5,3 C 99 % 1025,5 hPa 0,0 l/m 0,0 km/h (0 Bft) W-NW 291 0 min 0,000 mm 0,0 UV-I 0 W/m 5,2 C 5,3 C 1,6 km/h (1 Bft) 98,33 %
18.12.2015 01:55 5,3 C 99 % 1025,5 hPa 0,0 l/m 0,5 km/h (0 Bft) W-NW 291 0 min 0,000 mm 0,0 UV-I 0 W/m 5,2 C 5,3 C 1,6 km/h (1 Bft) 96,52 %
18.12.2015 02:00 5,4 C 99 % 1025,5 hPa 0,0 l/m 0,1 km/h (0 Bft) W-NW 291 0 min 0,000 mm 0,0 UV-I 0 W/m 5,3 C 5,4 C 1,6 km/h (1 Bft) 96,33 %
18.12.2015 02:05 5,6 C 99 % 1025,5 hPa 0,0 l/m 0,1 km/h (0 Bft) W-NW 291 0 min 0,000 mm 0,0 UV-I 0 W/m 5,5 C 5,6 C 1,6 km/h (1 Bft) 96,83 %
18.12.2015 02:10 5,7 C 99 % 1025,5 hPa 0,0 l/m 0,4 km/h (0 Bft) W-SW 257 0 min 0,000 mm 0,0 UV-I 0 W/m 5,6 C 5,7 C 1,6 km/h (1 Bft) 99,15 %
18.12.2015 02:15 5,6 C 99 % 1025,5 hPa 0,0 l/m 1,0 km/h (0 Bft) W-SW 257 0 min 0,000 mm 0,0 UV-I 0 W/m 5,5 C 5,6 C 3,2 km/h (1 Bft) 97,37 %
18.12.2015 02:20 5,4 C 99 % 1025,5 hPa 0,0 l/m 0,9 km/h (0 Bft) W-SW 257 0 min 0,000 mm 0,0 UV-I 0 W/m 5,3 C 5,4 C 3,2 km/h (1 Bft) 100,00 %
18.12.2015 02:25 5,3 C 99 % 1025,5 hPa 0,0 l/m 0,4 km/h (0 Bft) W-SW 257 0 min 0,000 mm 0,0 UV-I 0 W/m 5,2 C 5,3 C 1,6 km/h (1 Bft) 97,52 %
18.12.2015 02:30 5,3 C 99 % 1025,5 hPa 0,0 l/m 0,4 km/h (0 Bft) W-SW 257 0 min 0,000 mm 0,0 UV-I 0 W/m 5,2 C 5,3 C 1,6 km/h (1 Bft) 99,19 %
18.12.2015 02:35 5,4 C 99 % 1025,5 hPa 0,0 l/m 0,1 km/h (0 Bft) W-SW 257 0 min 0,000 mm 0,0 UV-I 0 W/m 5,3 C 5,4 C 1,6 km/h (1 Bft) 99,11 %
18.12.2015 02:40 5,5 C 99 % 1025,5 hPa 0,0 l/m 0,5 km/h (0 Bft) W-SW 257 0 min 0,000 mm 0,0 UV-I 0 W/m 5,4 C 5,5 C 1,6 km/h (1 Bft) 100,00 %
18.12.2015 02:45 5,7 C 99 % 1025,5 hPa 0,0 l/m 1,0 km/h (0 Bft) W-SW 257 0 min 0,000 mm 0,0 UV-I 0 W/m 5,6 C 5,7 C 3,2 km/h (1 Bft) 99,22 %
18.12.2015 02:50 5,7 C 99 % 1025,5 hPa 0,0 l/m 0,4 km/h (0 Bft) W-SW 257 0 min 0,000 mm 0,0 UV-I 0 W/m 5,6 C 5,7 C 1,6 km/h (1 Bft) 98,31 %
18.12.2015 02:55 5,8 C 99 % 1025,4 hPa 0,0 l/m 3,0 km/h (1 Bft) SW 225 0 min 0,000 mm 0,0 UV-I 0 W/m 5,7 C 5,8 C 4,8 km/h (1 Bft) 100,00 %
18.12.2015 03:00 6,1 C 99 % 1025,5 hPa 0,0 l/m 3,3 km/h (1 Bft) SW 215 0 min 0,000 mm 0,0 UV-I 0 W/m 6,0 C 6,1 C 4,8 km/h (1 Bft) 99,12 %
18.12.2015 03:05 6,3 C 99 % 1025,4 hPa 0,0 l/m 3,7 km/h (1 Bft) SW 226 0 min 0,000 mm 0,0 UV-I 0 W/m 6,2 C 6,3 C 6,4 km/h (2 Bft) 98,35 %
18.12.2015 03:10 6,4 C 99 % 1025,4 hPa 0,0 l/m 4,5 km/h (1 Bft) SW 217 0 min 0,000 mm 0,0 UV-I 0 W/m 6,3 C 6,4 C 6,4 km/h (2 Bft) 99,15 %
18.12.2015 03:15 6,4 C 99 % 1025,4 hPa 0,0 l/m 4,6 km/h (1 Bft) SW 217 0 min 0,000 mm 0,0 UV-I 0 W/m 6,3 C 6,4 C 6,4 km/h (2 Bft) 99,13 %
18.12.2015 03:20 6,4 C 99 % 1025,4 hPa 0,0 l/m 4,0 km/h (1 Bft) SW 225 0 min 0,000 mm 0,0 UV-I 0 W/m 6,3 C 6,4 C 6,4 km/h (2 Bft) 100,00 %
18.12.2015 03:25 6,4 C 99 % 1025,3 hPa 0,0 l/m 4,0 km/h (1 Bft) SW 230 0 min 0,000 mm 0,0 UV-I 0 W/m 6,3 C 6,4 C 8,0 km/h (2 Bft) 98,37 %
18.12.2015 03:30 6,4 C 99 % 1025,3 hPa 0,0 l/m 3,3 km/h (1 Bft) SW 230 0 min 0,000 mm 0,0 UV-I 0 W/m 6,3 C 6,4 C 4,8 km/h (1 Bft) 98,21 %
18.12.2015 03:35 6,5 C 99 % 1025,2 hPa 0,0 l/m 4,7 km/h (1 Bft) S-SW 203 0 min 0,000 mm 0,0 UV-I 0 W/m 6,4 C 6,5 C 8,0 km/h (2 Bft) 99,19 %
18.12.2015 03:40 6,6 C 99 % 1025,2 hPa 0,0 l/m 6,5 km/h (2 Bft) S-SW 193 0 min 0,000 mm 0,0 UV-I 0 W/m 6,5 C 6,5 C 9,7 km/h (2 Bft) 97,25 %
18.12.2015 03:45 6,7 C 99 % 1025,2 hPa 0,0 l/m 5,8 km/h (2 Bft) SW 219 0 min 0,000 mm 0,0 UV-I 0 W/m 6,6 C 6,7 C 9,7 km/h (2 Bft) 97,52 %
18.12.2015 03:50 6,7 C 98 % 1025,2 hPa 0,0 l/m 6,0 km/h (2 Bft) S-SW 210 0 min 0,000 mm 0,0 UV-I 0 W/m 6,4 C 6,7 C 9,7 km/h (2 Bft) 97,56 %
18.12.2015 03:55 6,6 C 98 % 1025,1 hPa 0,0 l/m 7,0 km/h (2 Bft) S 190 0 min 0,000 mm 0,0 UV-I 0 W/m 6,3 C 6,1 C 9,7 km/h (2 Bft) 94,85 %
18.12.2015 04:00 6,5 C 97 % 1025,1 hPa 0,0 l/m 5,0 km/h (1 Bft) S 170 0 min 0,000 mm 0,0 UV-I 0 W/m 6,1 C 6,5 C 8,0 km/h (2 Bft) 96,85 %
18.12.2015 04:05 6,4 C 97 % 1025,0 hPa 0,0 l/m 3,4 km/h (1 Bft) S-SO 163 0 min 0,000 mm 0,0 UV-I 0 W/m 6,0 C 6,4 C 6,4 km/h (2 Bft) 92,93 %
18.12.2015 04:10 6,3 C 97 % 1025,1 hPa 0,0 l/m 2,1 km/h (1 Bft) S-SO 161 0 min 0,000 mm 0,0 UV-I 0 W/m 5,9 C 6,3 C 6,4 km/h (2 Bft) 96,61 %
18.12.2015 04:15 6,3 C 97 % 1025,0 hPa 0,0 l/m 2,5 km/h (1 Bft) S-SO 161 0 min 0,000 mm 0,0 UV-I 0 W/m 5,9 C 6,3 C 6,4 km/h (2 Bft) 96,52 %
18.12.2015 04:20 6,2 C 97 % 1024,9 hPa 0,0 l/m 3,3 km/h (1 Bft) S-SO 166 0 min 0,000 mm 0,0 UV-I 0 W/m 5,8 C 6,2 C 6,4 km/h (2 Bft) 99,12 %
18.12.2015 04:25 6,0 C 97 % 1025,0 hPa 0,0 l/m 3,3 km/h (1 Bft) S-SO 148 0 min 0,000 mm 0,0 UV-I 0 W/m 5,6 C 6,0 C 6,4 km/h (2 Bft) 99,21 %
18.12.2015 04:30 5,9 C 97 % 1025,0 hPa 0,0 l/m 3,0 km/h (1 Bft) S 178 0 min 0,000 mm 0,0 UV-I 0 W/m 5,5 C 5,9 C 8,0 km/h (2 Bft) 97,22 %
18.12.2015 04:35 5,9 C 97 % 1025,0 hPa 0,0 l/m 3,7 km/h (1 Bft) S 178 0 min 0,000 mm 0,0 UV-I 0 W/m 5,5 C 5,9 C 6,4 km/h (2 Bft) 98,39 %
18.12.2015 04:40 5,7 C 97 % 1025,0 hPa 0,0 l/m 2,4 km/h (1 Bft) S 175 0 min 0,000 mm 0,0 UV-I 0 W/m 5,3 C 5,7 C 4,8 km/h (1 Bft) 99,15 %
18.12.2015 04:45 5,6 C 97 % 1024,9 hPa 0,0 l/m 2,5 km/h (1 Bft) S 178 0 min 0,000 mm 0,0 UV-I 0 W/m 5,2 C 5,6 C 6,4 km/h (2 Bft) 98,20 %
18.12.2015 04:50 5,8 C 98 % 1025,0 hPa 0,0 l/m 3,6 km/h (1 Bft) S 190 0 min 0,000 mm 0,0 UV-I 0 W/m 5,5 C 5,8 C 6,4 km/h (2 Bft) 98,26 %
18.12.2015 04:55 5,7 C 97 % 1025,0 hPa 0,0 l/m 4,8 km/h (1 Bft) S-SW 193 0 min 0,000 mm 0,0 UV-I 0 W/m 5,3 C 5,7 C 8,0 km/h (2 Bft) 100,00 %
18.12.2015 05:00 5,6 C 97 % 1024,9 hPa 0,0 l/m 6,4 km/h (2 Bft) S 169 0 min 0,000 mm 0,0 UV-I 0 W/m 5,2 C 5,6 C 9,7 km/h (2 Bft) 97,14 %
18.12.2015 05:05 5,6 C 97 % 1024,8 hPa 0,0 l/m 6,7 km/h (2 Bft) S 180 0 min 0,000 mm 0,0 UV-I 0 W/m 5,2 C 5,4 C 9,7 km/h (2 Bft) 97,69 %
18.12.2015 05:10 5,7 C 98 % 1024,8 hPa 0,0 l/m 5,6 km/h (1 Bft) S-SO 163 0 min 0,000 mm 0,0 UV-I 0 W/m 5,4 C 5,7 C 9,7 km/h (2 Bft) 99,21 %
18.12.2015 05:15 5,9 C 97 % 1024,9 hPa 0,0 l/m 4,8 km/h (1 Bft) S 182 0 min 0,000 mm 0,0 UV-I 0 W/m 5,5 C 5,9 C 9,7 km/h (2 Bft) 100,00 %
18.12.2015 05:20 6,1 C 97 % 1024,8 hPa 0,0 l/m 8,3 km/h (2 Bft) S-SO 155 0 min 0,000 mm 0,0 UV-I 0 W/m 5,7 C 4,5 C 14,5 km/h (3 Bft) 99,06 %
18.12.2015 05:25 6,1 C 96 % 1024,8 hPa 0,0 l/m 6,3 km/h (2 Bft) S-SO 163 0 min 0,000 mm 0,0 UV-I 0 W/m 5,5 C 6,1 C 12,9 km/h (3 Bft) 98,41 %
18.12.2015 05:30 6,2 C 96 % 1024,7 hPa 0,0 l/m 5,1 km/h (1 Bft) S 169 0 min 0,000 mm 0,0 UV-I 0 W/m 5,6 C 6,2 C 11,3 km/h (2 Bft) 97,39 %
18.12.2015 05:35 6,2 C 96 % 1024,7 hPa 0,0 l/m 5,1 km/h (1 Bft) S-SO 167 0 min 0,000 mm 0,0 UV-I 0 W/m 5,6 C 6,2 C 12,9 km/h (3 Bft) 99,17 %
18.12.2015 05:40 6,2 C 96 % 1024,8 hPa 0,0 l/m 3,9 km/h (1 Bft) S-SO 167 0 min 0,000 mm 0,0 UV-I 0 W/m 5,6 C 6,2 C 8,0 km/h (2 Bft) 99,15 %
18.12.2015 05:45 6,1 C 95 % 1024,8 hPa 0,0 l/m 5,3 km/h (1 Bft) S 184 0 min 0,000 mm 0,0 UV-I 0 W/m 5,4 C 6,1 C 9,7 km/h (2 Bft) 98,21 %
18.12.2015 05:50 5,9 C 96 % 1024,9 hPa 0,0 l/m 7,6 km/h (2 Bft) S 186 0 min 0,000 mm 0,0 UV-I 0 W/m 5,3 C 4,9 C 12,9 km/h (3 Bft) 97,37 %
18.12.2015 05:55 5,8 C 96 % 1024,8 hPa 0,0 l/m 8,0 km/h (2 Bft) S-SW 200 0 min 0,000 mm 0,0 UV-I 0 W/m 5,2 C 4,4 C 12,9 km/h (3 Bft) 95,97 %
18.12.2015 06:00 5,6 C 96 % 1024,8 hPa 0,0 l/m 7,2 km/h (2 Bft) S 184 0 min 0,000 mm 0,0 UV-I 0 W/m 5,0 C 4,9 C 9,7 km/h (2 Bft) 95,28 %
18.12.2015 06:05 5,5 C 96 % 1024,8 hPa 0,0 l/m 6,1 km/h (2 Bft) S-SO 155 0 min 0,000 mm 0,0 UV-I 0 W/m 4,9 C 5,5 C 9,7 km/h (2 Bft) 97,67 %
18.12.2015 06:10 5,4 C 96 % 1024,8 hPa 0,0 l/m 4,7 km/h (1 Bft) S 188 0 min 0,000 mm 0,0 UV-I 0 W/m 4,8 C 5,4 C 8,0 km/h (2 Bft) 98,21 %
18.12.2015 06:15 5,2 C 96 % 1024,8 hPa 0,0 l/m 4,6 km/h (1 Bft) S-SW 201 0 min 0,000 mm 0,0 UV-I 0 W/m 4,6 C 5,2 C 6,4 km/h (2 Bft) 94,64 %
18.12.2015 06:20 4,7 C 96 % 1024,8 hPa 0,0 l/m 4,2 km/h (1 Bft) S-SW 201 0 min 0,000 mm 0,0 UV-I 0 W/m 4,1 C 4,7 C 6,4 km/h (2 Bft) 99,17 %
18.12.2015 06:25 4,4 C 96 % 1024,8 hPa 0,0 l/m 0,8 km/h (0 Bft) S-SW 201 0 min 0,000 mm 0,0 UV-I 0 W/m 3,8 C 4,4 C 3,2 km/h (1 Bft) 99,19 %
18.12.2015 06:30 4,2 C 97 % 1024,8 hPa 0,0 l/m 1,0 km/h (0 Bft) S-SW 201 0 min 0,000 mm 0,0 UV-I 0 W/m 3,8 C 4,2 C 3,2 km/h (1 Bft) 100,00 %
18.12.2015 06:35 4,3 C 98 % 1024,8 hPa 0,0 l/m 2,8 km/h (1 Bft) S-SW 197 0 min 0,000 mm 0,0 UV-I 0 W/m 4,0 C 4,3 C 4,8 km/h (1 Bft) 100,00 %
18.12.2015 06:40 4,4 C 98 % 1024,8 hPa 0,0 l/m 1,4 km/h (1 Bft) S-SW 196 0 min 0,000 mm 0,0 UV-I 0 W/m 4,1 C 4,4 C 3,2 km/h (1 Bft) 100,00 %
18.12.2015 06:45 4,3 C 98 % 1024,7 hPa 0,0 l/m 2,2 km/h (1 Bft) S-SO 165 0 min 0,000 mm 0,0 UV-I 0 W/m 4,0 C 4,3 C 6,4 km/h (2 Bft) 99,06 %
18.12.2015 06:50 4,4 C 98 % 1024,9 hPa 0,0 l/m 0,8 km/h (0 Bft) S-SO 165 0 min 0,000 mm 0,0 UV-I 0 W/m 4,1 C 4,4 C 3,2 km/h (1 Bft) 98,39 %
18.12.2015 06:55 4,1 C 97 % 1024,9 hPa 0,0 l/m 0,6 km/h (0 Bft) W 273 0 min 0,000 mm 0,0 UV-I 0 W/m 3,7 C 4,1 C 3,2 km/h (1 Bft) 100,00 %
18.12.2015 07:00 3,5 C 96 % 1025,1 hPa 0,0 l/m 0,9 km/h (0 Bft) W 273 0 min 0,000 mm 0,0 UV-I 0 W/m 2,9 C 3,5 C 3,2 km/h (1 Bft) 100,00 %
18.12.2015 07:05 3,3 C 97 % 1025,0 hPa 0,0 l/m 1,4 km/h (1 Bft) W 271 0 min 0,000 mm 0,0 UV-I 0 W/m 2,9 C 3,3 C 3,2 km/h (1 Bft) 98,11 %
18.12.2015 07:10 3,1 C 97 % 1024,9 hPa 0,0 l/m 1,0 km/h (0 Bft) S 188 0 min 0,000 mm 0,0 UV-I 0 W/m 2,7 C 3,1 C 3,2 km/h (1 Bft) 98,35 %
18.12.2015 07:15 3,4 C 98 % 1024,9 hPa 0,0 l/m 1,5 km/h (1 Bft) S-SO 164 0 min 0,000 mm 0,0 UV-I 0 W/m 3,1 C 3,4 C 3,2 km/h (1 Bft) 98,37 %
18.12.2015 07:20 3,8 C 98 % 1024,9 hPa 0,0 l/m 2,6 km/h (1 Bft) S-SO 165 0 min 0,000 mm 0,0 UV-I 0 W/m 3,5 C 3,8 C 6,4 km/h (2 Bft) 100,00 %
18.12.2015 07:25 3,9 C 98 % 1024,8 hPa 0,0 l/m 1,7 km/h (1 Bft) S-SO 160 0 min 0,000 mm 0,0 UV-I 0 W/m 3,6 C 3,9 C 3,2 km/h (1 Bft) 98,33 %
18.12.2015 07:30 4,1 C 98 % 1024,9 hPa 0,0 l/m 1,7 km/h (1 Bft) S 175 0 min 0,000 mm 0,0 UV-I 0 W/m 3,8 C 4,1 C 4,8 km/h (1 Bft) 99,11 %
18.12.2015 07:35 4,0 C 98 % 1024,9 hPa 0,0 l/m 1,3 km/h (1 Bft) S 175 0 min 0,000 mm 0,0 UV-I 0 W/m 3,7 C 4,0 C 3,2 km/h (1 Bft) 99,06 %
18.12.2015 07:40 3,4 C 97 % 1024,9 hPa 0,0 l/m 0,6 km/h (0 Bft) S 175 0 min 0,000 mm 0,0 UV-I 0 W/m 3,0 C 3,4 C 3,2 km/h (1 Bft) 100,00 %
18.12.2015 07:45 3,1 C 97 % 1024,9 hPa 0,0 l/m 2,2 km/h (1 Bft) S 175 0 min 0,000 mm 0,0 UV-I 1 W/m 2,7 C 3,1 C 3,2 km/h (1 Bft) 99,13 %
18.12.2015 07:50 3,2 C 98 % 1025,0 hPa 0,0 l/m 1,7 km/h (1 Bft) S 175 0 min 0,000 mm 0,0 UV-I 5 W/m 2,9 C 3,2 C 3,2 km/h (1 Bft) 97,56 %
18.12.2015 07:55 3,3 C 98 % 1025,0 hPa 0,0 l/m 2,8 km/h (1 Bft) S 175 0 min 0,000 mm 0,0 UV-I 7 W/m 3,0 C 3,3 C 4,8 km/h (1 Bft) 95,76 %
18.12.2015 08:00 3,6 C 98 % 1025,0 hPa 0,0 l/m 3,2 km/h (1 Bft) S 173 0 min 0,000 mm 0,0 UV-I 9 W/m 3,3 C 3,6 C 4,8 km/h (1 Bft) 90,57 %
18.12.2015 08:05 3,6 C 98 % 1025,0 hPa 0,0 l/m 1,4 km/h (1 Bft) S 173 0 min 0,000 mm 0,0 UV-I 11 W/m 3,3 C 3,6 C 4,8 km/h (1 Bft) 50,79 %
18.12.2015 08:10 3,3 C 98 % 1025,0 hPa 0,0 l/m 1,8 km/h (1 Bft) S 173 0 min 0,000 mm 0,0 UV-I 11 W/m 3,0 C 3,3 C 3,2 km/h (1 Bft) 45,87 %
18.12.2015 08:15 3,2 C 98 % 1025,0 hPa 0,0 l/m 0,2 km/h (0 Bft) S 173 0 min 0,000 mm 0,0 UV-I 11 W/m 2,9 C 3,2 C 1,6 km/h (1 Bft) 46,34 %
18.12.2015 08:20 3,3 C 98 % 1025,0 hPa 0,0 l/m 1,4 km/h (1 Bft) S 173 0 min 0,000 mm 0,0 UV-I 11 W/m 3,0 C 3,3 C 3,2 km/h (1 Bft) 41,74 %
18.12.2015 08:25 3,4 C 98 % 1025,0 hPa 0,0 l/m 1,0 km/h (0 Bft) S 173 0 min 0,000 mm 0,0 UV-I 11 W/m 3,1 C 3,4 C 1,6 km/h (1 Bft) 43,55 %
18.12.2015 08:30 3,3 C 98 % 1025,0 hPa 0,0 l/m 1,4 km/h (1 Bft) S 173 0 min 0,000 mm 0,0 UV-I 11 W/m 3,0 C 3,3 C 3,2 km/h (1 Bft) 25,47 %
18.12.2015 08:35 3,2 C 98 % 1025,0 hPa 0,0 l/m 1,4 km/h (1 Bft) S 173 0 min 0,000 mm 0,0 UV-I 11 W/m 2,9 C 3,2 C 3,2 km/h (1 Bft) 22,76 %
18.12.2015 08:40 3,1 C 98 % 1025,2 hPa 0,0 l/m 1,8 km/h (1 Bft) W 267 0 min 0,000 mm 0,0 UV-I 22 W/m 2,8 C 3,1 C 3,2 km/h (1 Bft) 69,57 %
18.12.2015 08:45 2,8 C 98 % 1025,1 hPa 0,0 l/m 0,4 km/h (0 Bft) W 267 0 min 0,000 mm 0,0 UV-I 29 W/m 2,5 C 2,8 C 1,6 km/h (1 Bft) 94,02 %
18.12.2015 08:50 2,8 C 98 % 1025,2 hPa 0,0 l/m 0,4 km/h (0 Bft) W 267 0 min 0,000 mm 0,0 UV-I 31 W/m 2,5 C 2,8 C 1,6 km/h (1 Bft) 91,30 %
18.12.2015 08:55 3,2 C 98 % 1025,2 hPa 0,0 l/m 0,0 km/h (0 Bft) W 267 5 min 0,000 mm 0,0 UV-I 77 W/m 2,9 C 3,2 C 0,0 km/h (0 Bft) 81,15 %
18.12.2015 09:00 3,6 C 98 % 1025,3 hPa 0,0 l/m 0,1 km/h (0 Bft) W 267 5 min 0,025 mm 0,0 UV-I 106 W/m 3,3 C 3,6 C 1,6 km/h (1 Bft) 70,37 %
18.12.2015 09:05 3,6 C 99 % 1025,2 hPa 0,0 l/m 0,2 km/h (0 Bft) W 267 5 min 0,000 mm 0,0 UV-I 96 W/m 3,5 C 3,6 C 3,2 km/h (1 Bft) 63,79 %
18.12.2015 09:10 3,4 C 98 % 1025,3 hPa 0,0 l/m 0,0 km/h (0 Bft) W 267 0 min 0,000 mm 0,0 UV-I 84 W/m 3,1 C 3,4 C 1,6 km/h (1 Bft) 52,00 %
18.12.2015 09:15 3,6 C 98 % 1025,3 hPa 0,0 l/m 1,0 km/h (0 Bft) NW 319 5 min 0,000 mm 0,0 UV-I 100 W/m 3,3 C 3,6 C 3,2 km/h (1 Bft) 92,56 %
18.12.2015 09:20 3,6 C 98 % 1025,4 hPa 0,0 l/m 0,0 km/h (0 Bft) NW 319 0 min 0,000 mm 0,0 UV-I 68 W/m 3,3 C 3,6 C 1,6 km/h (1 Bft) 99,11 %
18.12.2015 09:25 3,4 C 98 % 1025,4 hPa 0,0 l/m 0,0 km/h (0 Bft) NW 319 0 min 0,000 mm 0,0 UV-I 60 W/m 3,1 C 3,4 C 0,0 km/h (0 Bft) 100,00 %
18.12.2015 09:30 3,3 C 98 % 1025,4 hPa 0,0 l/m 0,4 km/h (0 Bft) NW 319 0 min 0,000 mm 0,0 UV-I 52 W/m 3,0 C 3,3 C 3,2 km/h (1 Bft) 99,08 %
18.12.2015 09:35 3,4 C 98 % 1025,6 hPa 0,0 l/m 0,5 km/h (0 Bft) NW 319 0 min 0,000 mm 0,0 UV-I 100 W/m 3,1 C 3,4 C 3,2 km/h (1 Bft) 100,00 %
18.12.2015 09:40 3,4 C 99 % 1025,5 hPa 0,0 l/m 0,0 km/h (0 Bft) NW 319 0 min 0,000 mm 0,0 UV-I 38 W/m 3,3 C 3,4 C 1,6 km/h (1 Bft) 100,00 %
18.12.2015 09:45 3,7 C 98 % 1025,5 hPa 0,0 l/m 1,9 km/h (1 Bft) W 269 5 min 0,000 mm 0,0 UV-I 147 W/m 3,4 C 3,7 C 3,2 km/h (1 Bft) 98,43 %
18.12.2015 09:50 3,9 C 99 % 1025,6 hPa 0,0 l/m 3,1 km/h (1 Bft) W 259 5 min 0,000 mm 0,0 UV-I 186 W/m 3,8 C 3,9 C 4,8 km/h (1 Bft) 99,12 %
18.12.2015 09:55 4,2 C 99 % 1025,7 hPa 0,0 l/m 4,1 km/h (1 Bft) SW 219 5 min 0,000 mm 0,0 UV-I 194 W/m 4,1 C 4,2 C 6,4 km/h (2 Bft) 99,13 %
18.12.2015 10:00 4,4 C 99 % 1025,8 hPa 0,0 l/m 5,6 km/h (1 Bft) SW 226 5 min 0,051 mm 0,0 UV-I 200 W/m 4,3 C 4,4 C 8,0 km/h (2 Bft) 97,58 %
18.12.2015 10:05 4,6 C 99 % 1025,8 hPa 0,0 l/m 5,1 km/h (1 Bft) SW 235 5 min 0,000 mm 0,0 UV-I 205 W/m 4,5 C 4,6 C 8,0 km/h (2 Bft) 97,94 %
18.12.2015 10:10 4,8 C 99 % 1025,8 hPa 0,2 l/m 6,0 km/h (2 Bft) W-SW 237 5 min 0,000 mm 0,0 UV-I 197 W/m 4,7 C 4,8 C 11,3 km/h (2 Bft) 97,62 %
18.12.2015 10:15 5,0 C 99 % 1025,8 hPa 0,0 l/m 5,3 km/h (1 Bft) SW 225 5 min 0,000 mm 0,0 UV-I 211 W/m 4,9 C 5,0 C 8,0 km/h (2 Bft) 97,52 %
18.12.2015 10:20 5,2 C 98 % 1025,8 hPa 0,0 l/m 7,0 km/h (2 Bft) W 275 5 min 0,000 mm 0,0 UV-I 232 W/m 4,9 C 4,7 C 12,9 km/h (3 Bft) 96,49 %
18.12.2015 10:25 5,5 C 98 % 1025,8 hPa 0,0 l/m 5,4 km/h (1 Bft) W 277 5 min 0,000 mm 0,0 UV-I 278 W/m 5,2 C 5,5 C 9,7 km/h (2 Bft) 97,46 %
18.12.2015 10:30 5,5 C 98 % 1025,8 hPa 0,0 l/m 5,1 km/h (1 Bft) W 259 5 min 0,000 mm 0,0 UV-I 257 W/m 5,2 C 5,5 C 8,0 km/h (2 Bft) 96,43 %
18.12.2015 10:35 5,5 C 97 % 1025,8 hPa 0,0 l/m 4,6 km/h (1 Bft) W-SW 245 5 min 0,000 mm 0,0 UV-I 185 W/m 5,1 C 5,5 C 8,0 km/h (2 Bft) 99,24 %
18.12.2015 10:40 5,5 C 98 % 1025,9 hPa 0,0 l/m 4,7 km/h (1 Bft) W-SW 246 0 min 0,000 mm 0,0 UV-I 153 W/m 5,2 C 5,5 C 6,4 km/h (2 Bft) 98,17 %
18.12.2015 10:45 5,3 C 98 % 1025,9 hPa 0,0 l/m 3,1 km/h (1 Bft) W-SW 251 5 min 0,000 mm 0,0 UV-I 164 W/m 5,0 C 5,3 C 6,4 km/h (2 Bft) 97,50 %
18.12.2015 10:50 5,2 C 98 % 1025,8 hPa 0,0 l/m 4,6 km/h (1 Bft) W-SW 240 0 min 0,000 mm 0,0 UV-I 112 W/m 4,9 C 5,2 C 9,7 km/h (2 Bft) 100,00 %
18.12.2015 10:55 5,2 C 98 % 1025,8 hPa 0,0 l/m 4,1 km/h (1 Bft) W-SW 257 0 min 0,000 mm 0,0 UV-I 104 W/m 4,9 C 5,2 C 6,4 km/h (2 Bft) 100,00 %
18.12.2015 11:00 5,2 C 98 % 1025,8 hPa 0,0 l/m 6,4 km/h (2 Bft) W 265 0 min 0,076 mm 0,0 UV-I 76 W/m 4,9 C 5,2 C 11,3 km/h (2 Bft) 99,21 %
18.12.2015 11:05 5,3 C 98 % 1025,9 hPa 0,0 l/m 4,8 km/h (1 Bft) W 273 0 min 0,000 mm 0,0 UV-I 83 W/m 5,0 C 5,3 C 11,3 km/h (2 Bft) 98,11 %
18.12.2015 11:10 5,2 C 98 % 1025,9 hPa 0,0 l/m 3,5 km/h (1 Bft) W 267 0 min 0,000 mm 0,0 UV-I 67 W/m 4,9 C 5,2 C 9,7 km/h (2 Bft) 100,00 %
18.12.2015 11:15 5,3 C 98 % 1025,8 hPa 0,0 l/m 4,4 km/h (1 Bft) W-SW 240 0 min 0,000 mm 0,0 UV-I 76 W/m 5,0 C 5,3 C 6,4 km/h (2 Bft) 98,31 %
18.12.2015 11:20 5,3 C 98 % 1025,8 hPa 0,0 l/m 5,7 km/h (1 Bft) W-SW 246 0 min 0,000 mm 0,0 UV-I 101 W/m 5,0 C 5,3 C 11,3 km/h (2 Bft) 99,15 %
18.12.2015 11:25 5,4 C 98 % 1025,9 hPa 0,0 l/m 6,0 km/h (2 Bft) SW 226 0 min 0,000 mm 0,0 UV-I 117 W/m 5,1 C 5,4 C 11,3 km/h (2 Bft) 100,00 %
18.12.2015 11:30 5,4 C 98 % 1025,9 hPa 0,0 l/m 6,1 km/h (2 Bft) SW 230 0 min 0,000 mm 0,0 UV-I 108 W/m 5,1 C 5,4 C 11,3 km/h (2 Bft) 100,00 %
18.12.2015 11:35 5,5 C 98 % 1025,8 hPa 0,0 l/m 5,3 km/h (1 Bft) SW 231 0 min 0,000 mm 0,0 UV-I 101 W/m 5,2 C 5,5 C 11,3 km/h (2 Bft) 100,00 %
18.12.2015 11:40 5,6 C 99 % 1025,8 hPa 0,0 l/m 3,0 km/h (1 Bft) W 259 0 min 0,000 mm 0,0 UV-I 98 W/m 5,5 C 5,6 C 9,7 km/h (2 Bft) 99,05 %
18.12.2015 11:45 5,7 C 99 % 1025,9 hPa 0,0 l/m 4,5 km/h (1 Bft) S 190 0 min 0,000 mm 0,0 UV-I 96 W/m 5,6 C 5,7 C 8,0 km/h (2 Bft) 100,00 %
18.12.2015 11:50 5,7 C 99 % 1025,9 hPa 0,0 l/m 5,1 km/h (1 Bft) W-SW 238 0 min 0,000 mm 0,0 UV-I 92 W/m 5,6 C 5,7 C 11,3 km/h (2 Bft) 98,37 %
18.12.2015 11:55 5,8 C 99 % 1025,9 hPa 0,0 l/m 3,8 km/h (1 Bft) W 275 0 min 0,000 mm 0,0 UV-I 110 W/m 5,7 C 5,8 C 6,4 km/h (2 Bft) 97,32 %
18.12.2015 12:00 5,9 C 99 % 1025,8 hPa 0,0 l/m 5,7 km/h (1 Bft) W 260 0 min 0,000 mm 0,3 UV-I 166 W/m 5,8 C 5,9 C 9,7 km/h (2 Bft) 96,61 %
18.12.2015 12:05 6,0 C 99 % 1025,9 hPa 0,0 l/m 7,5 km/h (2 Bft) W 267 0 min 0,051 mm 0,4 UV-I 141 W/m 5,9 C 5,1 C 12,9 km/h (3 Bft) 98,20 %
18.12.2015 12:10 6,2 C 99 % 1026,0 hPa 0,0 l/m 4,2 km/h (1 Bft) W 271 0 min 0,000 mm 0,1 UV-I 125 W/m 6,1 C 6,2 C 9,7 km/h (2 Bft) 97,52 %
18.12.2015 12:15 6,4 C 99 % 1026,0 hPa 0,0 l/m 5,0 km/h (1 Bft) W-SW 258 0 min 0,000 mm 0,0 UV-I 111 W/m 6,3 C 6,4 C 12,9 km/h (3 Bft) 94,92 %
18.12.2015 12:20 6,5 C 99 % 1026,0 hPa 0,0 l/m 4,4 km/h (1 Bft) W-SW 252 0 min 0,000 mm 0,0 UV-I 107 W/m 6,4 C 6,5 C 8,0 km/h (2 Bft) 95,93 %
18.12.2015 12:25 6,6 C 99 % 1026,0 hPa 0,0 l/m 4,3 km/h (1 Bft) W 260 0 min 0,000 mm 0,0 UV-I 101 W/m 6,5 C 6,6 C 9,7 km/h (2 Bft) 97,25 %
18.12.2015 12:30 6,6 C 99 % 1026,0 hPa 0,0 l/m 5,1 km/h (1 Bft) W 273 0 min 0,000 mm 0,0 UV-I 94 W/m 6,5 C 6,6 C 9,7 km/h (2 Bft) 99,15 %
18.12.2015 12:35 6,8 C 98 % 1026,0 hPa 0,0 l/m 6,2 km/h (2 Bft) W 263 0 min 0,000 mm 0,0 UV-I 77 W/m 6,5 C 6,8 C 11,3 km/h (2 Bft) 99,17 %
18.12.2015 12:40 6,8 C 98 % 1026,0 hPa 0,0 l/m 5,3 km/h (1 Bft) W 267 0 min 0,000 mm 0,0 UV-I 68 W/m 6,5 C 6,8 C 9,7 km/h (2 Bft) 100,00 %
18.12.2015 12:45 6,9 C 98 % 1026,0 hPa 0,0 l/m 4,0 km/h (1 Bft) W 264 0 min 0,000 mm 0,0 UV-I 69 W/m 6,6 C 6,9 C 6,4 km/h (2 Bft) 98,29 %
18.12.2015 12:50 7,0 C 98 % 1026,0 hPa 0,0 l/m 3,8 km/h (1 Bft) W-SW 243 0 min 0,000 mm 0,0 UV-I 70 W/m 6,7 C 7,0 C 6,4 km/h (2 Bft) 99,15 %
18.12.2015 12:55 7,1 C 98 % 1026,0 hPa 0,0 l/m 4,2 km/h (1 Bft) S-SW 192 0 min 0,000 mm 0,0 UV-I 75 W/m 6,8 C 7,1 C 6,4 km/h (2 Bft) 99,11 %
18.12.2015 13:00 7,2 C 97 % 1026,0 hPa 0,0 l/m 6,1 km/h (2 Bft) S 190 0 min 0,051 mm 0,0 UV-I 71 W/m 6,8 C 7,2 C 9,7 km/h (2 Bft) 100,00 %
18.12.2015 13:05 7,3 C 97 % 1026,0 hPa 0,0 l/m 4,4 km/h (1 Bft) W-SW 253 0 min 0,000 mm 0,0 UV-I 46 W/m 6,9 C 7,3 C 8,0 km/h (2 Bft) 100,00 %
18.12.2015 13:10 7,3 C 97 % 1026,0 hPa 0,0 l/m 3,6 km/h (1 Bft) W-SW 246 0 min 0,000 mm 0,0 UV-I 27 W/m 6,9 C 7,3 C 6,4 km/h (2 Bft) 99,11 %
18.12.2015 13:15 7,4 C 97 % 1026,0 hPa 0,0 l/m 3,1 km/h (1 Bft) W-SW 250 0 min 0,000 mm 0,0 UV-I 23 W/m 7,0 C 7,4 C 6,4 km/h (2 Bft) 100,00 %
18.12.2015 13:20 7,4 C 97 % 1026,1 hPa 0,0 l/m 2,9 km/h (1 Bft) W 263 0 min 0,000 mm 0,0 UV-I 25 W/m 7,0 C 7,4 C 4,8 km/h (1 Bft) 99,13 %
18.12.2015 13:25 7,4 C 97 % 1026,0 hPa 0,0 l/m 1,9 km/h (1 Bft) W 263 0 min 0,000 mm 0,0 UV-I 32 W/m 7,0 C 7,4 C 4,8 km/h (1 Bft) 100,00 %
18.12.2015 13:30 7,4 C 97 % 1026,0 hPa 0,0 l/m 0,8 km/h (0 Bft) W 263 0 min 0,000 mm 0,0 UV-I 29 W/m 7,0 C 7,4 C 3,2 km/h (1 Bft) 99,10 %
18.12.2015 13:35 7,4 C 97 % 1026,2 hPa 0,0 l/m 0,1 km/h (0 Bft) W 263 0 min 0,000 mm 0,0 UV-I 23 W/m 7,0 C 7,4 C 1,6 km/h (1 Bft) 99,17 %
18.12.2015 13:40 7,4 C 97 % 1026,2 hPa 0,0 l/m 0,6 km/h (0 Bft) W 263 0 min 0,000 mm 0,0 UV-I 26 W/m 7,0 C 7,4 C 3,2 km/h (1 Bft) 99,19 %
18.12.2015 13:45 7,4 C 97 % 1026,1 hPa 0,0 l/m 1,4 km/h (1 Bft) W-SW 248 0 min 0,000 mm 0,0 UV-I 33 W/m 7,0 C 7,4 C 4,8 km/h (1 Bft) 99,11 %
18.12.2015 13:50 7,5 C 97 % 1026,0 hPa 0,0 l/m 0,2 km/h (0 Bft) W-SW 248 0 min 0,000 mm 0,0 UV-I 36 W/m 7,1 C 7,5 C 1,6 km/h (1 Bft) 98,33 %
18.12.2015 13:55 7,5 C 96 % 1026,0 hPa 0,0 l/m 0,0 km/h (0 Bft) W-SW 248 0 min 0,000 mm 0,0 UV-I 30 W/m 6,9 C 7,5 C 1,6 km/h (1 Bft) 97,32 %
18.12.2015 14:00 7,5 C 96 % 1026,0 hPa 0,0 l/m 0,4 km/h (0 Bft) W-SW 248 0 min 0,025 mm 0,0 UV-I 29 W/m 6,9 C 7,5 C 3,2 km/h (1 Bft) 98,35 %
18.12.2015 14:05 7,5 C 97 % 1026,1 hPa 0,0 l/m 0,8 km/h (0 Bft) W-SW 248 0 min 0,000 mm 0,0 UV-I 28 W/m 7,1 C 7,5 C 4,8 km/h (1 Bft) 96,67 %
18.12.2015 14:10 7,4 C 97 % 1026,1 hPa 0,0 l/m 0,8 km/h (0 Bft) W-SW 248 0 min 0,000 mm 0,0 UV-I 29 W/m 7,0 C 7,4 C 3,2 km/h (1 Bft) 96,33 %
18.12.2015 14:15 7,4 C 97 % 1025,9 hPa 0,0 l/m 1,3 km/h (1 Bft) W 272 0 min 0,000 mm 0,0 UV-I 31 W/m 7,0 C 7,4 C 3,2 km/h (1 Bft) 97,52 %
18.12.2015 14:20 7,4 C 97 % 1025,8 hPa 0,0 l/m 1,0 km/h (0 Bft) N 350 0 min 0,000 mm 0,0 UV-I 36 W/m 7,0 C 7,4 C 3,2 km/h (1 Bft) 97,37 %
18.12.2015 14:25 7,4 C 97 % 1025,8 hPa 0,2 l/m 0,8 km/h (0 Bft) N 350 0 min 0,000 mm 0,0 UV-I 36 W/m 7,0 C 7,4 C 3,2 km/h (1 Bft) 98,31 %
18.12.2015 14:30 7,5 C 97 % 1025,7 hPa 0,0 l/m 1,1 km/h (1 Bft) N 350 0 min 0,000 mm 0,0 UV-I 36 W/m 7,1 C 7,5 C 3,2 km/h (1 Bft) 97,46 %
18.12.2015 14:35 7,5 C 96 % 1025,8 hPa 0,0 l/m 0,8 km/h (0 Bft) N 350 0 min 0,000 mm 0,0 UV-I 40 W/m 6,9 C 7,5 C 3,2 km/h (1 Bft) 100,00 %
18.12.2015 14:40 7,6 C 97 % 1025,7 hPa 0,0 l/m 0,6 km/h (0 Bft) N 355 0 min 0,000 mm 0,0 UV-I 42 W/m 7,2 C 7,6 C 3,2 km/h (1 Bft) 97,25 %
18.12.2015 14:45 7,6 C 97 % 1025,7 hPa 0,0 l/m 1,7 km/h (1 Bft) N-NO 17 0 min 0,000 mm 0,0 UV-I 44 W/m 7,2 C 7,6 C 4,8 km/h (1 Bft) 98,37 %
18.12.2015 14:50 7,6 C 97 % 1025,6 hPa 0,0 l/m 3,2 km/h (1 Bft) NO 38 0 min 0,000 mm 0,0 UV-I 37 W/m 7,2 C 7,6 C 4,8 km/h (1 Bft) 100,00 %
18.12.2015 14:55 7,5 C 97 % 1025,6 hPa 0,0 l/m 4,1 km/h (1 Bft) NO 53 0 min 0,000 mm 0,0 UV-I 29 W/m 7,1 C 7,5 C 6,4 km/h (2 Bft) 100,00 %
18.12.2015 15:00 7,4 C 97 % 1025,7 hPa 0,0 l/m 2,0 km/h (1 Bft) NO 53 0 min 0,026 mm 0,0 UV-I 25 W/m 7,0 C 7,4 C 4,8 km/h (1 Bft) 99,17 %
18.12.2015 15:05 7,4 C 97 % 1025,8 hPa 0,0 l/m 2,4 km/h (1 Bft) O-NO 71 0 min 0,000 mm 0,0 UV-I 28 W/m 7,0 C 7,4 C 4,8 km/h (1 Bft) 100,00 %
18.12.2015 15:15 7,4 C 97 % 1025,8 hPa 0,0 l/m 3,0 km/h (1 Bft) O-NO 71 0 min 0,000 mm 0,0 UV-I 10 W/m 7,0 C 7,4 C 3,2 km/h (1 Bft) 99,28 %
18.12.2015 15:20 7,4 C 97 % 1025,7 hPa 0,0 l/m 2,8 km/h (1 Bft) O-NO 70 0 min 0,000 mm 0,0 UV-I 13 W/m 7,0 C 7,4 C 4,8 km/h (1 Bft) 99,17 %
18.12.2015 15:25 7,4 C 97 % 1025,9 hPa 0,0 l/m 3,1 km/h (1 Bft) O-NO 70 0 min 0,000 mm 0,0 UV-I 17 W/m 7,0 C 7,4 C 4,8 km/h (1 Bft) 99,07 %
18.12.2015 15:30 7,4 C 97 % 1026,0 hPa 0,0 l/m 0,4 km/h (0 Bft) NO 34 0 min 0,000 mm 0,0 UV-I 13 W/m 7,0 C 7,4 C 1,6 km/h (1 Bft) 99,15 %
18.12.2015 15:35 7,4 C 97 % 1026,1 hPa 0,0 l/m 0,3 km/h (0 Bft) N-NO 31 0 min 0,000 mm 0,0 UV-I 8 W/m 7,0 C 7,4 C 1,6 km/h (1 Bft) 100,00 %
18.12.2015 15:40 7,3 C 97 % 1026,2 hPa 0,0 l/m 0,6 km/h (0 Bft) N 9 0 min 0,000 mm 0,0 UV-I 7 W/m 6,9 C 7,3 C 3,2 km/h (1 Bft) 100,00 %
18.12.2015 15:45 7,3 C 97 % 1026,1 hPa 0,0 l/m 0,6 km/h (0 Bft) N 9 0 min 0,000 mm 0,0 UV-I 9 W/m 6,9 C 7,3 C 3,2 km/h (1 Bft) 100,00 %
18.12.2015 15:50 7,3 C 97 % 1026,2 hPa 0,0 l/m 1,1 km/h (1 Bft) N-NO 13 0 min 0,000 mm 0,0 UV-I 9 W/m 6,9 C 7,3 C 3,2 km/h (1 Bft) 100,00 %
18.12.2015 15:55 7,3 C 97 % 1026,2 hPa 0,0 l/m 0,3 km/h (0 Bft) N-NO 13 0 min 0,000 mm 0,0 UV-I 5 W/m 6,9 C 7,3 C 1,6 km/h (1 Bft) 98,33 %
18.12.2015 16:00 7,3 C 97 % 1026,2 hPa 0,0 l/m 0,0 km/h (0 Bft) N-NO 13 0 min 0,000 mm 0,0 UV-I 0 W/m 6,9 C 7,3 C 1,6 km/h (1 Bft) 98,17 %
18.12.2015 16:05 7,3 C 96 % 1026,3 hPa 0,0 l/m 0,0 km/h (0 Bft) N-NO 13 0 min 0,000 mm 0,0 UV-I 0 W/m 6,7 C 7,3 C 1,6 km/h (1 Bft) 96,83 %
18.12.2015 16:10 7,3 C 96 % 1026,3 hPa 0,0 l/m 0,6 km/h (0 Bft) O-NO 74 0 min 0,000 mm 0,0 UV-I 0 W/m 6,7 C 7,3 C 3,2 km/h (1 Bft) 97,46 %
18.12.2015 16:15 7,2 C 96 % 1026,3 hPa 0,0 l/m 0,8 km/h (0 Bft) N 355 0 min 0,000 mm 0,0 UV-I 0 W/m 6,6 C 7,2 C 3,2 km/h (1 Bft) 97,00 %
18.12.2015 16:20 7,2 C 96 % 1026,3 hPa 0,0 l/m 0,4 km/h (0 Bft) N-NW 345 0 min 0,000 mm 0,0 UV-I 0 W/m 6,6 C 7,2 C 3,2 km/h (1 Bft) 96,75 %
18.12.2015 16:25 7,1 C 96 % 1026,3 hPa 0,0 l/m 0,1 km/h (0 Bft) N-NW 345 0 min 0,000 mm 0,0 UV-I 0 W/m 6,5 C 7,1 C 1,6 km/h (1 Bft) 96,88 %
18.12.2015 16:30 7,0 C 96 % 1026,2 hPa 0,0 l/m 0,4 km/h (0 Bft) N-NW 345 0 min 0,000 mm 0,0 UV-I 0 W/m 6,4 C 7,0 C 1,6 km/h (1 Bft) 96,52 %
18.12.2015 16:35 6,8 C 96 % 1026,2 hPa 0,0 l/m 2,7 km/h (1 Bft) SO 134 0 min 0,000 mm 0,0 UV-I 0 W/m 6,2 C 6,8 C 4,8 km/h (1 Bft) 98,33 %
18.12.2015 16:40 6,8 C 97 % 1026,3 hPa 0,0 l/m 3,1 km/h (1 Bft) S-SO 159 0 min 0,000 mm 0,0 UV-I 0 W/m 6,4 C 6,8 C 6,4 km/h (2 Bft) 98,06 %
18.12.2015 16:45 6,8 C 97 % 1026,2 hPa 0,0 l/m 1,4 km/h (1 Bft) S-SO 159 0 min 0,000 mm 0,0 UV-I 0 W/m 6,4 C 6,8 C 3,2 km/h (1 Bft) 97,62 %
18.12.2015 16:50 6,9 C 98 % 1026,2 hPa 0,0 l/m 1,6 km/h (1 Bft) S-SO 157 0 min 0,000 mm 0,0 UV-I 0 W/m 6,6 C 6,9 C 3,2 km/h (1 Bft) 99,17 %
18.12.2015 16:55 6,9 C 97 % 1026,3 hPa 0,0 l/m 2,9 km/h (1 Bft) S-SW 208 0 min 0,000 mm 0,0 UV-I 0 W/m 6,5 C 6,9 C 6,4 km/h (2 Bft) 100,00 %
18.12.2015 17:00 6,9 C 97 % 1026,3 hPa 0,0 l/m 3,0 km/h (1 Bft) S-SW 209 0 min 0,000 mm 0,0 UV-I 0 W/m 6,5 C 6,9 C 6,4 km/h (2 Bft) 99,15 %
18.12.2015 17:05 7,0 C 97 % 1026,4 hPa 0,0 l/m 3,2 km/h (1 Bft) S-SW 196 0 min 0,000 mm 0,0 UV-I 0 W/m 6,6 C 7,0 C 4,8 km/h (1 Bft) 100,00 %
18.12.2015 17:10 7,1 C 97 % 1026,3 hPa 0,0 l/m 1,6 km/h (1 Bft) S 186 0 min 0,000 mm 0,0 UV-I 0 W/m 6,7 C 7,1 C 4,8 km/h (1 Bft) 98,11 %
18.12.2015 17:15 7,1 C 97 % 1026,4 hPa 0,0 l/m 1,5 km/h (1 Bft) S 186 0 min 0,000 mm 0,0 UV-I 0 W/m 6,7 C 7,1 C 3,2 km/h (1 Bft) 98,45 %
18.12.2015 17:20 7,1 C 97 % 1026,3 hPa 0,0 l/m 3,8 km/h (1 Bft) O-NO 63 0 min 0,000 mm 0,0 UV-I 0 W/m 6,7 C 7,1 C 6,4 km/h (2 Bft) 97,25 %
18.12.2015 17:25 7,1 C 97 % 1026,5 hPa 0,0 l/m 1,5 km/h (1 Bft) O-NO 78 0 min 0,000 mm 0,0 UV-I 0 W/m 6,7 C 7,1 C 4,8 km/h (1 Bft) 99,19 %
18.12.2015 17:30 7,0 C 97 % 1026,5 hPa 0,0 l/m 0,2 km/h (0 Bft) O-NO 78 0 min 0,000 mm 0,0 UV-I 0 W/m 6,6 C 7,0 C 1,6 km/h (1 Bft) 97,52 %
18.12.2015 17:35 6,9 C 97 % 1026,5 hPa 0,0 l/m 0,0 km/h (0 Bft) O-NO 78 0 min 0,000 mm 0,0 UV-I 0 W/m 6,5 C 6,9 C 0,0 km/h (0 Bft) 99,08 %
18.12.2015 17:40 6,9 C 97 % 1026,5 hPa 0,0 l/m 0,0 km/h (0 Bft) O-NO 78 0 min 0,000 mm 0,0 UV-I 0 W/m 6,5 C 6,9 C 0,0 km/h (0 Bft) 100,00 %
18.12.2015 17:45 6,9 C 97 % 1026,4 hPa 0,0 l/m 1,4 km/h (1 Bft) O 92 0 min 0,000 mm 0,0 UV-I 0 W/m 6,5 C 6,9 C 3,2 km/h (1 Bft) 98,17 %
18.12.2015 17:50 6,9 C 98 % 1026,3 hPa 0,0 l/m 0,7 km/h (0 Bft) O 92 0 min 0,000 mm 0,0 UV-I 0 W/m 6,6 C 6,9 C 3,2 km/h (1 Bft) 99,17 %
18.12.2015 17:55 6,9 C 98 % 1026,4 hPa 0,0 l/m 2,0 km/h (1 Bft) SO 140 0 min 0,000 mm 0,0 UV-I 0 W/m 6,6 C 6,9 C 3,2 km/h (1 Bft) 99,12 %
18.12.2015 18:00 6,9 C 98 % 1026,3 hPa 0,0 l/m 2,8 km/h (1 Bft) S-SO 165 0 min 0,000 mm 0,0 UV-I 0 W/m 6,6 C 6,9 C 6,4 km/h (2 Bft) 99,19 %
18.12.2015 18:05 6,9 C 98 % 1026,2 hPa 0,0 l/m 2,4 km/h (1 Bft) S-SW 196 0 min 0,000 mm 0,0 UV-I 0 W/m 6,6 C 6,9 C 6,4 km/h (2 Bft) 97,44 %
18.12.2015 18:10 7,0 C 98 % 1026,2 hPa 0,0 l/m 1,6 km/h (1 Bft) W-NW 290 0 min 0,000 mm 0,0 UV-I 0 W/m 6,7 C 7,0 C 4,8 km/h (1 Bft) 96,52 %
18.12.2015 18:15 6,8 C 98 % 1026,4 hPa 0,0 l/m 0,7 km/h (0 Bft) W-NW 291 0 min 0,000 mm 0,0 UV-I 0 W/m 6,5 C 6,8 C 3,2 km/h (1 Bft) 95,87 %
18.12.2015 18:20 6,6 C 98 % 1026,4 hPa 0,0 l/m 0,6 km/h (0 Bft) W-NW 291 0 min 0,000 mm 0,0 UV-I 0 W/m 6,3 C 6,6 C 1,6 km/h (1 Bft) 97,94 %
18.12.2015 18:25 6,6 C 98 % 1026,3 hPa 0,0 l/m 0,1 km/h (0 Bft) W-NW 291 0 min 0,000 mm 0,0 UV-I 0 W/m 6,3 C 6,6 C 1,6 km/h (1 Bft) 96,30 %
18.12.2015 18:30 6,7 C 98 % 1026,5 hPa 0,0 l/m 0,1 km/h (0 Bft) N-NW 339 0 min 0,000 mm 0,0 UV-I 0 W/m 6,4 C 6,7 C 1,6 km/h (1 Bft) 95,60 %
18.12.2015 18:35 6,7 C 98 % 1026,5 hPa 0,0 l/m 1,3 km/h (1 Bft) N 360 0 min 0,000 mm 0,0 UV-I 0 W/m 6,4 C 6,7 C 3,2 km/h (1 Bft) 97,83 %
18.12.2015 18:40 6,8 C 98 % 1026,5 hPa 0,0 l/m 0,2 km/h (0 Bft) N 360 0 min 0,000 mm 0,0 UV-I 0 W/m 6,5 C 6,8 C 1,6 km/h (1 Bft) 100,00 %
18.12.2015 18:45 6,8 C 98 % 1026,7 hPa 0,0 l/m 1,1 km/h (1 Bft) N 11 0 min 0,000 mm 0,0 UV-I 0 W/m 6,5 C 6,8 C 3,2 km/h (1 Bft) 98,35 %
18.12.2015 18:50 6,9 C 98 % 1026,6 hPa 0,0 l/m 0,1 km/h (0 Bft) N 11 0 min 0,000 mm 0,0 UV-I 0 W/m 6,6 C 6,9 C 1,6 km/h (1 Bft) 99,12 %
18.12.2015 18:55 7,0 C 98 % 1026,8 hPa 0,0 l/m 0,8 km/h (0 Bft) N 349 0 min 0,000 mm 0,0 UV-I 0 W/m 6,7 C 7,0 C 3,2 km/h (1 Bft) 99,20 %
18.12.2015 19:00 7,0 C 98 % 1026,8 hPa 0,0 l/m 0,3 km/h (0 Bft) N 5 0 min 0,000 mm 0,0 UV-I 0 W/m 6,7 C 7,0 C 1,6 km/h (1 Bft) 99,12 %
18.12.2015 19:05 7,0 C 97 % 1026,8 hPa 0,0 l/m 0,1 km/h (0 Bft) N 5 0 min 0,000 mm 0,0 UV-I 0 W/m 6,6 C 7,0 C 1,6 km/h (1 Bft) 99,17 %
18.12.2015 19:10 7,0 C 97 % 1026,8 hPa 0,0 l/m 0,4 km/h (0 Bft) N 5 0 min 0,000 mm 0,0 UV-I 0 W/m 6,6 C 7,0 C 1,6 km/h (1 Bft) 100,00 %
18.12.2015 19:15 6,9 C 97 % 1026,8 hPa 0,0 l/m 0,0 km/h (0 Bft) N 5 0 min 0,000 mm 0,0 UV-I 0 W/m 6,5 C 6,9 C 0,0 km/h (0 Bft) 100,00 %
18.12.2015 19:20 7,0 C 97 % 1026,9 hPa 0,0 l/m 0,1 km/h (0 Bft) N 5 0 min 0,000 mm 0,0 UV-I 0 W/m 6,6 C 7,0 C 1,6 km/h (1 Bft) 100,00 %
18.12.2015 19:25 7,0 C 97 % 1027,0 hPa 0,0 l/m 0,1 km/h (0 Bft) N 5 0 min 0,000 mm 0,0 UV-I 0 W/m 6,6 C 7,0 C 1,6 km/h (1 Bft) 98,25 %
18.12.2015 19:30 7,0 C 97 % 1027,0 hPa 0,0 l/m 0,0 km/h (0 Bft) N 5 0 min 0,000 mm 0,0 UV-I 0 W/m 6,6 C 7,0 C 0,0 km/h (0 Bft) 98,26 %
18.12.2015 19:35 6,9 C 97 % 1027,0 hPa 0,0 l/m 0,2 km/h (0 Bft) N 5 0 min 0,000 mm 0,0 UV-I 0 W/m 6,5 C 6,9 C 1,6 km/h (1 Bft) 99,17 %
18.12.2015 19:40 6,9 C 97 % 1027,0 hPa 0,0 l/m 0,5 km/h (0 Bft) N 5 0 min 0,000 mm 0,0 UV-I 0 W/m 6,5 C 6,9 C 1,6 km/h (1 Bft) 100,00 %
18.12.2015 19:45 7,0 C 97 % 1027,1 hPa 0,0 l/m 0,0 km/h (0 Bft) N 5 0 min 0,000 mm 0,0 UV-I 0 W/m 6,6 C 7,0 C 1,6 km/h (1 Bft) 100,00 %
18.12.2015 19:50 7,0 C 97 % 1027,0 hPa 0,0 l/m 0,1 km/h (0 Bft) N 5 0 min 0,000 mm 0,0 UV-I 0 W/m 6,6 C 7,0 C 1,6 km/h (1 Bft) 100,00 %
18.12.2015 19:55 7,1 C 97 % 1027,0 hPa 0,0 l/m 0,9 km/h (0 Bft) O 95 0 min 0,000 mm 0,0 UV-I 0 W/m 6,7 C 7,1 C 3,2 km/h (1 Bft) 100,00 %
18.12.2015 20:00 7,1 C 97 % 1027,0 hPa 0,0 l/m 0,1 km/h (0 Bft) O 95 0 min 0,000 mm 0,0 UV-I 0 W/m 6,7 C 7,1 C 1,6 km/h (1 Bft) 98,35 %
18.12.2015 20:05 7,1 C 97 % 1027,0 hPa 0,0 l/m 0,7 km/h (0 Bft) O 95 0 min 0,000 mm 0,0 UV-I 0 W/m 6,7 C 7,1 C 3,2 km/h (1 Bft) 97,44 %
18.12.2015 20:10 7,1 C 97 % 1027,1 hPa 0,0 l/m 1,9 km/h (1 Bft) S 188 0 min 0,000 mm 0,0 UV-I 0 W/m 6,7 C 7,1 C 4,8 km/h (1 Bft) 97,25 %
18.12.2015 20:15 7,1 C 97 % 1027,0 hPa 0,0 l/m 1,4 km/h (1 Bft) S 188 0 min 0,000 mm 0,0 UV-I 0 W/m 6,7 C 7,1 C 4,8 km/h (1 Bft) 97,58 %
18.12.2015 20:20 7,1 C 97 % 1027,0 hPa 0,0 l/m 3,5 km/h (1 Bft) S 178 0 min 0,000 mm 0,0 UV-I 0 W/m 6,7 C 7,1 C 4,8 km/h (1 Bft) 97,37 %
18.12.2015 20:25 7,1 C 97 % 1027,0 hPa 0,0 l/m 3,5 km/h (1 Bft) S 178 0 min 0,000 mm 0,0 UV-I 0 W/m 6,7 C 7,1 C 4,8 km/h (1 Bft) 95,54 %
18.12.2015 20:30 7,1 C 97 % 1026,9 hPa 0,0 l/m 3,1 km/h (1 Bft) S-SW 193 0 min 0,000 mm 0,0 UV-I 0 W/m 6,7 C 7,1 C 4,8 km/h (1 Bft) 96,85 %
18.12.2015 20:35 7,1 C 97 % 1026,9 hPa 0,0 l/m 6,2 km/h (2 Bft) S-SW 197 0 min 0,000 mm 0,0 UV-I 0 W/m 6,7 C 7,1 C 9,7 km/h (2 Bft) 96,49 %
18.12.2015 20:40 7,1 C 97 % 1026,9 hPa 0,0 l/m 6,3 km/h (2 Bft) S-SW 196 0 min 0,000 mm 0,0 UV-I 0 W/m 6,7 C 7,1 C 9,7 km/h (2 Bft) 98,31 %
18.12.2015 20:45 7,1 C 97 % 1026,9 hPa 0,0 l/m 5,8 km/h (2 Bft) S 190 0 min 0,000 mm 0,0 UV-I 0 W/m 6,7 C 7,1 C 9,7 km/h (2 Bft) 97,32 %
18.12.2015 20:50 7,2 C 97 % 1026,9 hPa 0,0 l/m 4,9 km/h (1 Bft) S 187 0 min 0,000 mm 0,0 UV-I 0 W/m 6,8 C 7,2 C 8,0 km/h (2 Bft) 99,19 %
18.12.2015 20:55 7,2 C 97 % 1027,0 hPa 0,0 l/m 5,2 km/h (1 Bft) S-SW 199 0 min 0,000 mm 0,0 UV-I 0 W/m 6,8 C 7,2 C 8,0 km/h (2 Bft) 100,00 %
18.12.2015 21:00 7,2 C 97 % 1027,0 hPa 0,0 l/m 4,2 km/h (1 Bft) W-SW 242 0 min 0,000 mm 0,0 UV-I 0 W/m 6,8 C 7,2 C 6,4 km/h (2 Bft) 99,17 %
18.12.2015 21:05 7,2 C 97 % 1027,1 hPa 0,0 l/m 3,0 km/h (1 Bft) W-SW 240 0 min 0,000 mm 0,0 UV-I 0 W/m 6,8 C 7,2 C 4,8 km/h (1 Bft) 100,00 %
18.12.2015 21:10 7,1 C 97 % 1027,1 hPa 0,0 l/m 4,0 km/h (1 Bft) SW 225 0 min 0,000 mm 0,0 UV-I 0 W/m 6,7 C 7,1 C 8,0 km/h (2 Bft) 99,13 %
18.12.2015 21:15 7,1 C 97 % 1027,1 hPa 0,0 l/m 5,2 km/h (1 Bft) SW 221 0 min 0,000 mm 0,0 UV-I 0 W/m 6,7 C 7,1 C 8,0 km/h (2 Bft) 99,10 %
18.12.2015 21:20 7,1 C 97 % 1027,1 hPa 0,0 l/m 4,4 km/h (1 Bft) SW 231 0 min 0,000 mm 0,0 UV-I 0 W/m 6,7 C 7,1 C 6,4 km/h (2 Bft) 99,19 %
18.12.2015 21:25 7,1 C 97 % 1027,1 hPa 0,0 l/m 5,2 km/h (1 Bft) S-SW 204 0 min 0,000 mm 0,0 UV-I 0 W/m 6,7 C 7,1 C 8,0 km/h (2 Bft) 99,17 %
18.12.2015 21:30 7,1 C 97 % 1027,1 hPa 0,0 l/m 4,2 km/h (1 Bft) W 275 0 min 0,000 mm 0,0 UV-I 0 W/m 6,7 C 7,1 C 8,0 km/h (2 Bft) 98,21 %
18.12.2015 21:35 7,2 C 97 % 1027,1 hPa 0,0 l/m 3,5 km/h (1 Bft) NO 40 0 min 0,000 mm 0,0 UV-I 0 W/m 6,8 C 7,2 C 6,4 km/h (2 Bft) 99,19 %
18.12.2015 21:40 7,1 C 97 % 1027,1 hPa 0,0 l/m 1,5 km/h (1 Bft) NO 42 0 min 0,000 mm 0,0 UV-I 0 W/m 6,7 C 7,1 C 4,8 km/h (1 Bft) 98,11 %
18.12.2015 21:45 6,9 C 96 % 1027,2 hPa 0,0 l/m 0,0 km/h (0 Bft) NO 42 0 min 0,000 mm 0,0 UV-I 0 W/m 6,3 C 6,9 C 1,6 km/h (1 Bft) 98,33 %
18.12.2015 21:50 6,8 C 97 % 1027,2 hPa 0,0 l/m 1,4 km/h (1 Bft) O 80 0 min 0,000 mm 0,0 UV-I 0 W/m 6,4 C 6,8 C 4,8 km/h (1 Bft) 100,00 %
18.12.2015 21:55 6,9 C 97 % 1027,3 hPa 0,0 l/m 2,5 km/h (1 Bft) O 80 0 min 0,000 mm 0,0 UV-I 0 W/m 6,5 C 6,9 C 4,8 km/h (1 Bft) 99,21 %
18.12.2015 22:00 6,9 C 97 % 1027,3 hPa 0,0 l/m 0,9 km/h (0 Bft) O 80 0 min 0,000 mm 0,0 UV-I 0 W/m 6,5 C 6,9 C 1,6 km/h (1 Bft) 98,17 %
18.12.2015 22:05 6,9 C 97 % 1027,4 hPa 0,0 l/m 0,5 km/h (0 Bft) O 80 0 min 0,000 mm 0,0 UV-I 0 W/m 6,5 C 6,9 C 3,2 km/h (1 Bft) 100,00 %
18.12.2015 22:10 6,9 C 98 % 1027,3 hPa 0,0 l/m 0,1 km/h (0 Bft) O 80 0 min 0,000 mm 0,0 UV-I 0 W/m 6,6 C 6,9 C 1,6 km/h (1 Bft) 99,13 %
18.12.2015 22:15 6,9 C 97 % 1027,3 hPa 0,0 l/m 1,3 km/h (1 Bft) SO 136 0 min 0,000 mm 0,0 UV-I 0 W/m 6,5 C 6,9 C 3,2 km/h (1 Bft) 96,61 %
18.12.2015 22:20 7,1 C 97 % 1027,2 hPa 0,0 l/m 1,5 km/h (1 Bft) SO 146 0 min 0,000 mm 0,0 UV-I 0 W/m 6,7 C 7,1 C 3,2 km/h (1 Bft) 98,33 %
18.12.2015 22:25 7,1 C 97 % 1027,3 hPa 0,0 l/m 0,8 km/h (0 Bft) SO 146 0 min 0,000 mm 0,0 UV-I 0 W/m 6,7 C 7,1 C 3,2 km/h (1 Bft) 96,61 %
18.12.2015 22:30 7,1 C 97 % 1027,3 hPa 0,0 l/m 1,4 km/h (1 Bft) SO 146 0 min 0,000 mm 0,0 UV-I 0 W/m 6,7 C 7,1 C 4,8 km/h (1 Bft) 96,61 %
18.12.2015 22:35 7,1 C 97 % 1027,3 hPa 0,0 l/m 2,5 km/h (1 Bft) S-SO 148 0 min 0,000 mm 0,0 UV-I 0 W/m 6,7 C 7,1 C 4,8 km/h (1 Bft) 97,22 %
18.12.2015 22:40 7,1 C 97 % 1027,1 hPa 0,0 l/m 3,0 km/h (1 Bft) S 170 0 min 0,000 mm 0,0 UV-I 0 W/m 6,7 C 7,1 C 8,0 km/h (2 Bft) 97,39 %
18.12.2015 22:45 7,2 C 97 % 1027,1 hPa 0,0 l/m 2,7 km/h (1 Bft) S-SO 165 0 min 0,000 mm 0,0 UV-I 0 W/m 6,8 C 7,2 C 6,4 km/h (2 Bft) 97,46 %
18.12.2015 22:50 7,4 C 97 % 1027,0 hPa 0,0 l/m 3,0 km/h (1 Bft) S 173 0 min 0,000 mm 0,0 UV-I 0 W/m 7,0 C 7,4 C 6,4 km/h (2 Bft) 100,00 %
18.12.2015 22:55 7,4 C 96 % 1027,0 hPa 0,0 l/m 2,1 km/h (1 Bft) S-SO 163 0 min 0,000 mm 0,0 UV-I 0 W/m 6,8 C 7,4 C 6,4 km/h (2 Bft) 96,52 %
18.12.2015 23:00 7,5 C 96 % 1027,0 hPa 0,0 l/m 2,3 km/h (1 Bft) S 171 0 min 0,000 mm 0,0 UV-I 0 W/m 6,9 C 7,5 C 8,0 km/h (2 Bft) 100,00 %
18.12.2015 23:05 7,6 C 96 % 1027,0 hPa 0,0 l/m 1,3 km/h (1 Bft) S 171 0 min 0,000 mm 0,0 UV-I 0 W/m 7,0 C 7,6 C 3,2 km/h (1 Bft) 98,17 %
18.12.2015 23:10 7,5 C 96 % 1026,9 hPa 0,0 l/m 1,5 km/h (1 Bft) S-SO 147 0 min 0,000 mm 0,0 UV-I 0 W/m 6,9 C 7,5 C 6,4 km/h (2 Bft) 99,19 %
18.12.2015 23:15 7,4 C 96 % 1026,9 hPa 0,0 l/m 1,0 km/h (0 Bft) S-SO 157 0 min 0,000 mm 0,0 UV-I 0 W/m 6,8 C 7,4 C 3,2 km/h (1 Bft) 99,17 %
18.12.2015 23:20 7,4 C 97 % 1027,0 hPa 0,0 l/m 4,5 km/h (1 Bft) S 183 0 min 0,000 mm 0,0 UV-I 0 W/m 7,0 C 7,4 C 8,0 km/h (2 Bft) 99,08 %
18.12.2015 23:25 7,2 C 96 % 1027,0 hPa 0,0 l/m 1,5 km/h (1 Bft) S 183 0 min 0,000 mm 0,0 UV-I 0 W/m 6,6 C 7,2 C 4,8 km/h (1 Bft) 100,00 %
18.12.2015 23:30 7,2 C 97 % 1027,0 hPa 0,0 l/m 0,7 km/h (0 Bft) S 183 0 min 0,000 mm 0,0 UV-I 0 W/m 6,8 C 7,2 C 3,2 km/h (1 Bft) 99,15 %
18.12.2015 23:35 6,8 C 96 % 1026,9 hPa 0,0 l/m 1,4 km/h (1 Bft) S 183 0 min 0,000 mm 0,0 UV-I 0 W/m 6,2 C 6,8 C 3,2 km/h (1 Bft) 99,15 %
18.12.2015 23:40 6,7 C 97 % 1026,9 hPa 0,0 l/m 1,9 km/h (1 Bft) S 183 0 min 0,000 mm 0,0 UV-I 0 W/m 6,3 C 6,7 C 3,2 km/h (1 Bft) 99,15 %
18.12.2015 23:45 6,7 C 97 % 1026,8 hPa 0,0 l/m 2,5 km/h (1 Bft) O-NO 65 0 min 0,000 mm 0,0 UV-I 0 W/m 6,3 C 6,7 C 4,8 km/h (1 Bft) 98,26 %
18.12.2015 23:50 6,4 C 97 % 1026,8 hPa 0,0 l/m 4,0 km/h (1 Bft) O-NO 59 0 min 0,000 mm 0,0 UV-I 0 W/m 6,0 C 6,4 C 4,8 km/h (1 Bft) 100,00 %
18.12.2015 23:55 6,5 C 98 % 1026,8 hPa 0,0 l/m 3,4 km/h (1 Bft) O-NO 74 0 min 0,000 mm 0,0 UV-I 0 W/m 6,2 C 6,5 C 4,8 km/h (1 Bft) 99,15 %
_ Min-Zeit 08:50 05:45 05:30 - 01:05 - - - - - - 08:45 08:45 01:05 08:35
Minimum _ 2,7 C 95 % 1024,7 hPa - 0,0 km/h (0 Bft) - - - - - - 2,5 C 2,8 C 0,0 km/h (0 Bft) 22,76 %
_ Max-Zeit 14:00 00:00 22:05 10:10 05:20 - - 08:55 11:00 12:05 10:25 14:40 14:40 05:20 00:35
Maximum _ 7,6 C 99 % 1027,4 hPa 0,2 l/m 8,3 km/h
S-SO (2 Bft)
- - 5 min 0,076 mm 0,4 UV-I 278 W/m 7,2 C 7,6 C 14,5 km/h
S-SO (3 Bft)
100,00 %
Durchschnitt _ 6,1 C 98 % 1025,9 hPa #0,4 l/m 2,5 km/h (1 Bft) S - #1:20 h #0,305 mm 0,3 UV-I 72 W/m 5,7 C 6,1 C 5,1 km/h (1 Bft) 96,41 %